This demonstration page uses our WeatherBlox Daily Observations layout. Learn more.

39.29038, -76.61219

Hourly Observations for December 10, 2017

Temp ( °F °C ) Dew Point ( °F °C ) Humidity (%) Winds ( mph kmh ) Pressure ( in mb ) Visibility ( mi km ) Precip ( " mm )
12:54 am 00:54 undefined 31 -0.6 26 -3.3 82 82 undefined N/A 29.83 1010 N/A 0 0
1:54 am 01:54 undefined 31 -0.6 26 -3.3 82 82 undefined N/A 29.83 1010 N/A 0 0
2:54 am 02:54 undefined 31 -0.6 26 -3.3 82 82 undefined N/A 29.85 1011 N/A 0 0
3:54 am 03:54 undefined 31 -0.6 25 -3.9 79 79 undefined N/A 29.88 1012 N/A 0 0
4:54 am 04:54 undefined 32 0 24 -4.4 73 73 undefined N/A 29.91 1013 N/A 0 0
5:54 am 05:54 undefined 32 0 24 -4.4 73 73 undefined N/A 29.91 1013 N/A 0 0
6:54 am 06:54 undefined 31 -0.6 23 -5 72 72 undefined N/A 29.94 1014 N/A 0 0
7:54 am 07:54 undefined 31 -0.6 23 -5 72 72 undefined N/A 29.97 1015 N/A 0 0
8:54 am 08:54 undefined 35 1.7 25 -3.9 67 67 undefined N/A 30 1016 N/A 0 0
9:54 am 09:54 undefined 37 2.8 25 -3.9 62 62 undefined N/A 30.03 1017 N/A 0 0
10:54 am 10:54 undefined 39 3.9 24 -4.4 55 55 undefined N/A 30.03 1017 N/A 0 0
11:54 am 11:54 undefined 40 4.4 22 -5.6 49 49 undefined N/A 30.03 1017 N/A 0 0
12:54 pm 12:54 undefined 39 3.9 23 -5 53 53 undefined N/A 30.03 1017 N/A 0 0
1:54 pm 13:54 undefined 39 3.9 22 -5.6 50 50 undefined N/A 30 1016 N/A 0 0
2:54 pm 14:54 undefined 40 4.4 22 -5.6 49 49 undefined N/A 30 1016 N/A 0 0
3:54 pm 15:54 undefined 39 3.9 20 -6.7 46 46 undefined N/A 30 1016 N/A 0 0
4:54 pm 16:54 undefined 39 3.9 21 -6.1 48 48 undefined N/A 30.03 1017 N/A 0 0
5:54 pm 17:54 undefined 39 3.9 21 -6.1 48 48 undefined N/A 30.03 1017 N/A 0 0
6:54 pm 18:54 undefined 39 3.9 23 -5 53 53 undefined N/A 30.03 1017 N/A 0 0
7:54 pm 19:54 undefined 38 3.3 23 -5 55 55 undefined N/A 30.03 1017 N/A 0 0
8:54 pm 20:54 undefined 37 2.8 23 -5 57 57 undefined N/A 30.03 1017 N/A 0 0
9:54 pm 21:54 undefined 37 2.8 24 -4.4 59 59 undefined N/A 30.03 1017 N/A 0 0
10:54 pm 22:54 undefined 37 2.8 25 -3.9 62 62 undefined N/A 30.03 1017 N/A 0 0
11:54 pm 23:54 undefined 37 2.8 27 -2.8 67 67 undefined N/A 30.03 1017 N/A 0 0

Powered by AerisWeather